Howell, MI

10:48 PM EDT on August 21, 2017 (GMT -0400)
Livingston County

Weather History for KOZW - October, 2013

Change the Weather History Date:

Thursday, October 31, 2013

  Actual Average Record
Temperature  
Mean Temperature 57 °F -  
Max Temperature 61 °F 53 °F 71 °F (2003)
Min Temperature 53 °F 36 °F 26 °F (2002)
Degree Days  
Heating Degree Days 8    
Growing Degree Days 7 (Base 50)    
Moisture  
Dew Point 59 °F    
Average Humidity 98    
Maximum Humidity 100    
Minimum Humidity 94    
Precipitation  
Precipitation 0.00 in - - ()
Sea Level Pressure  
Sea Level Pressure 29.56 in    
Wind  
Wind Speed 11 mph (South)    
Max Wind Speed 22 mph    
Max Gust Speed 31 mph    
Visibility 6 miles    
Events Rain    
Averages and records for this station are not official NWS values.
T = Trace of Precipitation, MM = Missing Value Source: NWS Daily Summary

Daily Weather History Graph

Daily Weather History Graph

Search for Another Location

Airport or City:

Trip Planner

Search our weather history database for the weather conditions in past years. The results will help you decide how hot, cold, wet, or windy it might be!

Date:

Astronomy

Oct. 31, 2013 Rise Set
Actual Time 8:08 AM EDT 6:29 PM EDT
Civil Twilight 7:39 AM EDT 6:58 PM EDT
Nautical Twilight 7:06 AM EDT 7:32 PM EDT
Astronomical Twilight 6:33 AM EDT 8:04 PM EDT
Moon 4:53 AM EDT (10/31) 4:50 PM EDT (10/31)
Length of Visible Light 11h 19m
Length of Day
10h 20m
Waning Crescent, 10% of the Moon is Illuminated
Oct 31
Waning Crescent
Nov 3
New
Nov 10
First Quarter
Nov 17
Full
Nov 25
Last Quarter

Hourly Weather History & Observations

Time (EDT) Temp. Dew Point Humidity Pressure Visibility Wind Dir Wind Speed Gust Speed Precip Events Conditions
12:14 AM 53.1 °F 52.7 °F 99% 29.94 in 3.0 mi SE 6.9 mph - N/A Rain Rain
12:35 AM 53.1 °F 52.7 °F 99% 29.93 in 2.5 mi SSE 8.1 mph - N/A Rain Rain
12:54 AM 53.1 °F 52.9 °F 99% 29.89 in 1.8 mi ESE 9.2 mph - N/A Rain Heavy Rain
1:14 AM 53.2 °F 53.2 °F 100% 29.88 in 1.8 mi SE 8.1 mph - N/A Rain Light Rain
1:34 AM 53.8 °F 53.8 °F 100% 29.87 in 2.0 mi SE 8.1 mph - N/A Rain Rain
1:55 AM 54.5 °F 54.5 °F 100% 29.86 in 2.0 mi SSE 5.8 mph - N/A Rain Rain
2:15 AM 54.9 °F 54.9 °F 100% 29.83 in 3.0 mi SE 10.4 mph - N/A Rain Rain
2:34 AM 55.4 °F 55.4 °F 100% 29.83 in 4.0 mi SSE 8.1 mph - N/A   Light Drizzle
2:55 AM 56.1 °F 56.1 °F 100% 29.82 in 4.0 mi SSE 9.2 mph - N/A Rain Light Rain
3:15 AM 56.7 °F 56.7 °F 100% 29.80 in 4.0 mi SSE 9.2 mph - N/A Rain Rain
3:34 AM 57.2 °F 57.2 °F 100% 29.79 in 4.0 mi SSE 9.2 mph - N/A Rain Heavy Rain
3:55 AM 57.9 °F 57.9 °F 100% 29.78 in 4.0 mi South 6.9 mph - N/A Rain Rain
4:14 AM 58.3 °F 58.3 °F 100% 29.76 in 4.0 mi SSE 13.8 mph 18.4 mph N/A Rain Heavy Rain
4:34 AM 59.0 °F 59.0 °F 100% 29.74 in 4.0 mi South 10.4 mph 19.6 mph N/A Rain Rain
4:55 AM 59.7 °F 59.7 °F 100% 29.73 in 5.0 mi South 12.7 mph 18.4 mph N/A Rain Rain
5:14 AM 60.3 °F 60.3 °F 100% 29.73 in 5.0 mi South 13.8 mph 18.4 mph N/A Rain Rain
5:34 AM 61.7 °F 61.3 °F 99% 29.74 in 5.0 mi SSW 21.9 mph 31.1 mph N/A Rain Light Rain
5:55 AM 61.7 °F 60.1 °F 94% 29.74 in 10.0 mi SW 18.4 mph 27.6 mph N/A   Drizzle
6:14 AM 61.2 °F 59.9 °F 96% 29.74 in 5.0 mi SW 12.7 mph 20.7 mph N/A Rain Heavy Rain
6:34 AM 61.2 °F 60.1 °F 96% 29.74 in 7.0 mi SW 8.1 mph - N/A Rain Light Rain
6:55 AM 60.8 °F 60.3 °F 98% 29.73 in 5.0 mi SSW 11.5 mph - N/A Rain Light Rain
7:14 AM 61.7 °F 60.8 °F 97% 29.73 in 7.0 mi SSW 8.1 mph - N/A Rain Light Rain
7:34 AM 61.9 °F 60.8 °F 96% 29.72 in 7.0 mi SW 11.5 mph 24.2 mph N/A Rain Light Rain
7:55 AM 61.7 °F 60.8 °F 97% 29.70 in 7.0 mi SSW 6.9 mph - N/A Rain Light Rain
8:14 AM 61.7 °F 60.8 °F 97% 29.70 in 7.0 mi SSW 8.1 mph - N/A Rain Light Rain
8:34 AM 61.7 °F 60.8 °F 97% 29.69 in 7.0 mi SSW 9.2 mph - N/A Rain Rain
8:55 AM 61.3 °F 60.3 °F 96% 29.68 in 7.0 mi South 9.2 mph - N/A Rain Rain
9:14 AM 61.2 °F 60.3 °F 97% 29.68 in 5.0 mi South 10.4 mph - N/A Rain Rain
9:35 AM 61.0 °F 60.3 °F 97% 29.67 in 4.0 mi South 9.2 mph - N/A Rain Light Rain
9:54 AM 61.3 °F 60.8 °F 98% 29.65 in 4.0 mi South 9.2 mph - N/A   Drizzle
10:14 AM 61.7 °F 61.0 °F 97% 29.65 in 4.0 mi South 12.7 mph 18.4 mph N/A Rain Light Rain
10:35 AM 61.7 °F 61.0 °F 97% 29.63 in 3.0 mi South 16.1 mph 21.9 mph N/A Rain Rain
10:54 AM 61.3 °F 60.4 °F 97% 29.63 in 5.0 mi SSW 13.8 mph 26.5 mph N/A Rain Light Rain
11:14 AM 61.2 °F 60.1 °F 96% 29.62 in 5.0 mi SSW 13.8 mph 23.0 mph N/A Rain Rain
11:34 AM 60.8 °F 59.5 °F 96% 29.62 in 7.0 mi South 12.7 mph 20.7 mph N/A Rain Rain
11:54 AM 60.4 °F 59.4 °F 96% 29.61 in 5.0 mi South 16.1 mph 23.0 mph N/A Rain Light Rain
12:15 PM 60.3 °F 59.2 °F 96% 29.60 in 7.0 mi SSW 15.0 mph 25.3 mph N/A Rain Light Rain
12:34 PM 60.3 °F 59.2 °F 96% 29.60 in 4.0 mi SSW 15.0 mph 21.9 mph N/A Rain Light Rain
12:54 PM 60.3 °F 59.2 °F 96% 29.59 in 5.0 mi SSW 15.0 mph - N/A Rain Rain
1:15 PM 60.3 °F 59.2 °F 96% 29.58 in 7.0 mi SSW 13.8 mph 21.9 mph N/A Rain Light Rain
1:34 PM 60.3 °F 59.2 °F 96% 29.57 in 7.0 mi SSW 13.8 mph 21.9 mph N/A Rain Light Rain
1:54 PM 60.4 °F 59.2 °F 96% 29.55 in 7.0 mi SSW 18.4 mph 26.5 mph N/A Rain Light Rain
2:15 PM 60.6 °F 59.2 °F 95% 29.55 in 7.0 mi SSW 13.8 mph 19.6 mph N/A Rain Rain
2:34 PM 60.4 °F 59.2 °F 96% 29.53 in 4.0 mi SSW 12.7 mph 23.0 mph N/A Rain Light Rain
2:54 PM 60.3 °F 59.2 °F 96% 29.51 in 7.0 mi SSW 10.4 mph 17.3 mph N/A Rain Light Rain
3:14 PM 60.3 °F 59.2 °F 96% 29.49 in 7.0 mi South 10.4 mph - N/A Rain Rain
3:34 PM 60.1 °F 59.2 °F 97% 29.48 in 7.0 mi South 10.4 mph 18.4 mph N/A Rain Light Rain
3:55 PM 60.1 °F 59.0 °F 96% 29.46 in 5.0 mi South 9.2 mph 19.6 mph N/A Rain Rain
4:14 PM 59.9 °F 59.0 °F 97% 29.45 in 7.0 mi South 12.7 mph 19.6 mph N/A Rain Light Rain
4:34 PM 59.9 °F 59.0 °F 97% 29.44 in 5.0 mi South 11.5 mph 24.2 mph N/A Rain Light Rain
4:55 PM 59.7 °F 59.0 °F 97% 29.42 in 3.0 mi South 10.4 mph 16.1 mph N/A   Drizzle
5:14 PM 59.5 °F 59.0 °F 98% 29.41 in 4.0 mi South 11.5 mph 18.4 mph N/A   Drizzle
5:34 PM 59.5 °F 59.0 °F 98% 29.39 in 4.0 mi South 10.4 mph 16.1 mph N/A   Drizzle
5:55 PM 59.4 °F 59.0 °F 99% 29.38 in 3.0 mi South 17.3 mph 24.2 mph N/A   Drizzle
6:14 PM 59.2 °F 58.6 °F 98% 29.36 in 3.0 mi South 11.5 mph 23.0 mph N/A   Light Drizzle
6:34 PM 59.0 °F 58.5 °F 98% 29.34 in 5.0 mi South 15.0 mph 20.7 mph N/A   Overcast
6:55 PM 59.0 °F 58.5 °F 98% 29.32 in 4.0 mi South 12.7 mph 19.6 mph N/A   Overcast
7:14 PM 59.0 °F 58.5 °F 98% 29.31 in 4.0 mi South 12.7 mph 20.7 mph N/A   Overcast
7:34 PM 59.0 °F 58.6 °F 99% 29.30 in 5.0 mi South 13.8 mph 19.6 mph N/A   Overcast
7:55 PM 59.4 °F 59.0 °F 99% 29.28 in 7.0 mi South 15.0 mph 19.6 mph N/A   Overcast
8:14 PM 59.5 °F 59.0 °F 98% 29.27 in 5.0 mi South 12.7 mph 21.9 mph N/A   Overcast
8:34 PM 59.9 °F 59.4 °F 98% 29.25 in 7.0 mi South 11.5 mph 18.4 mph N/A   Overcast
8:55 PM 60.3 °F 59.9 °F 99% 29.23 in 10.0 mi South 13.8 mph 21.9 mph N/A   Overcast
9:14 PM 60.8 °F 60.3 °F 98% 29.22 in 7.0 mi South 13.8 mph - N/A Rain Rain
9:34 PM 61.2 °F 60.8 °F 99% 29.20 in 10.0 mi South 15.0 mph 20.7 mph N/A Rain Light Rain
9:55 PM 61.3 °F 60.8 °F 98% 29.19 in 10.0 mi South 12.7 mph 18.4 mph N/A Rain Rain
10:14 PM 61.3 °F 60.8 °F 98% 29.17 in 10.0 mi South 12.7 mph 17.3 mph N/A Rain Rain
10:34 PM 61.3 °F 60.8 °F 98% 29.16 in 10.0 mi South 9.2 mph - N/A Rain Light Rain
10:55 PM 61.3 °F 60.4 °F 97% 29.14 in 10.0 mi South 10.4 mph - N/A   Overcast
11:14 PM 61.3 °F 60.4 °F 97% 29.15 in 10.0 mi South 9.2 mph 17.3 mph N/A   Drizzle
11:35 PM 61.3 °F 60.4 °F 97% 29.16 in 10.0 mi South 12.7 mph 19.6 mph N/A Rain Light Rain
11:55 PM 61.3 °F 60.3 °F 96% 29.15 in 10.0 mi SSW 12.7 mph 19.6 mph N/A Rain Light Rain